Sunlight Mountain, CO

9:26 PM MST on February 19, 2018 (GMT -0700)
Sunlight Mountain

Weather History for K5SM - July, 2013

Change the Weather History Date:

Sunday, July 28, 2013

  Actual Average (KRIL) Record (KRIL)
Temperature  
Mean Temperature 53 °F -  
Max Temperature 60 °F 89 °F 100 °F (1943)
Min Temperature 46 °F 52 °F 40 °F (1944)
Degree Days  
Heating Degree Days 12    
Growing Degree Days 3 (Base 50)    
Moisture  
Dew Point 35 °F    
Average Humidity 76    
Maximum Humidity 100    
Minimum Humidity 4    
Precipitation  
Precipitation 0.00 in - - ()
Sea Level Pressure  
Sea Level Pressure 30.40 in    
Wind  
Wind Speed 0 mph (West)    
Max Wind Speed 6 mph    
Max Gust Speed -    
Visibility 6 miles    
Events Fog , Rain , Thunderstorm    
Averages and records for this station are not official NWS values.
T = Trace of Precipitation, MM = Missing Value Source: NWS Daily Summary

Daily Weather History Graph

Daily Weather History Graph

Search for Another Location

Airport or City:

Trip Planner

Search our weather history database for the weather conditions in past years. The results will help you decide how hot, cold, wet, or windy it might be!

Date:

Astronomy

Jul. 28, 2013 Rise Set
Actual Time 6:05 AM MDT 8:25 PM MDT
Civil Twilight 5:35 AM MDT 8:55 PM MDT
Nautical Twilight 4:58 AM MDT 9:33 PM MDT
Astronomical Twilight 4:16 AM MDT 10:14 PM MDT
Moon 11:51 PM MDT (7/28) 12:48 PM MDT (7/28)
Length of Visible Light 15h 20m
Length of Day
14h 19m
Waning Gibbous, 60% of the Moon is Illuminated
Jul 28
Waning Gibbous
Jul 29
Last Quarter
Aug 6
New
Aug 14
First Quarter
Aug 20
Full

Hourly Weather History & Observations

Time (MDT) Temp. Dew Point Humidity Pressure Visibility Wind Dir Wind Speed Gust Speed Precip Events Conditions
12:18 AM 48.2 °F 46.4 °F 93% 30.44 in 10.0 mi Calm Calm - N/A Rain Light Rain
12:38 AM 48.2 °F 46.4 °F 93% 30.44 in 10.0 mi Calm Calm - N/A Rain Light Rain
12:58 AM 48.2 °F 46.4 °F 93% 30.42 in 10.0 mi Calm Calm - N/A   Light Drizzle
1:18 AM 48.2 °F 46.4 °F 93% 30.42 in 10.0 mi Calm Calm - N/A Rain Rain
1:38 AM 48.2 °F 46.4 °F 93% 30.42 in 10.0 mi Calm Calm - N/A Rain Rain
1:57 AM 48.2 °F 46.4 °F 93% 30.41 in 10.0 mi Calm Calm - N/A Rain Rain
2:18 AM 48.2 °F 46.4 °F 93% 30.40 in 10.0 mi Calm Calm - N/A   Drizzle
2:38 AM 48.2 °F 46.4 °F 93% 30.39 in 10.0 mi Calm Calm - N/A   Drizzle
2:58 AM 48.2 °F 46.4 °F 93% 30.39 in 5.0 mi Calm Calm - N/A Rain Light Rain
3:18 AM 48.2 °F 46.4 °F 93% 30.38 in 7.0 mi Calm Calm - N/A Rain Rain
3:38 AM 48.2 °F 46.4 °F 93% 30.38 in 5.0 mi Calm Calm - N/A Rain Rain
3:58 AM 48.2 °F 46.4 °F 93% 30.38 in 2.5 mi Calm Calm - N/A Rain Rain
4:18 AM 48.2 °F 46.4 °F 93% 30.37 in 1.2 mi Calm Calm - N/A Rain Rain
4:38 AM 48.2 °F 48.2 °F 100% 30.37 in 0.8 mi Calm Calm - N/A Rain Light Rain
4:58 AM 48.2 °F 48.2 °F 100% 30.37 in 0.8 mi Calm Calm - N/A Rain Light Rain
5:18 AM 48.2 °F 46.4 °F 93% 30.36 in 1.2 mi Calm Calm - N/A   Light Drizzle
5:38 AM 48.2 °F 46.4 °F 93% 30.37 in 1.0 mi Calm Calm - N/A   Overcast
5:58 AM 46.4 °F 46.4 °F 100% 30.36 in 2.0 mi Calm Calm - N/A   Overcast
6:18 AM 46.4 °F 46.4 °F 100% 30.37 in 1.8 mi Calm Calm - N/A Rain Rain
6:38 AM 48.2 °F 46.4 °F 93% 30.37 in 1.0 mi Calm Calm - N/A Rain Light Rain
6:58 AM 48.2 °F 48.2 °F 100% 30.37 in 0.5 mi Calm Calm - N/A Rain Light Rain
7:18 AM 48.2 °F 48.2 °F 100% 30.37 in 0.5 mi Calm Calm - N/A Rain Rain
7:38 AM 50.0 °F 48.2 °F 94% 30.38 in 0.5 mi Calm Calm - N/A Fog Fog
7:58 AM 50.0 °F 48.2 °F 94% 30.38 in 0.8 mi Calm Calm - N/A   Overcast
8:18 AM 50.0 °F 50.0 °F 100% 30.38 in 1.2 mi Calm Calm - N/A Rain Light Rain
8:38 AM 50.0 °F 50.0 °F 100% 30.38 in 0.5 mi Calm Calm - N/A Fog Fog
8:58 AM 50.0 °F 50.0 °F 100% 30.38 in 0.5 mi Calm Calm - N/A Fog Fog
9:18 AM 50.0 °F 50.0 °F 100% 30.38 in 0.5 mi Calm Calm - N/A Rain Light Rain
9:38 AM 50.0 °F 50.0 °F 100% 30.38 in 0.2 mi Calm Calm - N/A Rain Rain
9:58 AM 50.0 °F 50.0 °F 100% 30.39 in 0.2 mi Calm Calm - N/A Rain Rain
10:18 AM 51.8 °F 50.0 °F 94% 30.39 in 0.5 mi Calm Calm - N/A Rain Light Rain
10:38 AM 51.8 °F 50.0 °F 94% 30.39 in 0.2 mi Calm Calm - N/A Fog Fog
10:58 AM 51.8 °F 51.8 °F 100% 30.39 in 0.2 mi Calm Calm - N/A Fog Fog
11:18 AM 51.8 °F 51.8 °F 100% 30.39 in 0.2 mi Calm Calm - N/A Fog Fog
11:38 AM 51.8 °F 51.8 °F 100% 30.39 in 0.5 mi Calm Calm - N/A Fog Fog
11:58 AM 53.6 °F 51.8 °F 94% 30.40 in 1.0 mi SW 3.5 mph - N/A   Overcast
12:18 PM 50.0 °F 50.0 °F 100% 30.40 in 0.2 mi WSW 3.5 mph - N/A Rain Light Rain
12:38 PM 50.0 °F 50.0 °F 100% 30.40 in 0.2 mi West 4.6 mph - N/A Fog Fog
12:58 PM 50.0 °F 50.0 °F 100% 30.41 in 4.0 mi Calm Calm - N/A   Overcast
1:18 PM 50.0 °F 50.0 °F 100% 30.41 in 0.2 mi Calm Calm - N/A Rain Light Rain
1:38 PM 50.0 °F 50.0 °F 100% 30.41 in 2.5 mi Calm Calm - N/A Rain Light Rain
1:58 PM 51.8 °F 51.8 °F 100% 30.41 in 5.0 mi Calm Calm - N/A Rain Light Rain
2:18 PM 53.6 °F 51.8 °F 94% 30.41 in 10.0 mi West 3.5 mph - N/A   Mostly Cloudy
2:38 PM 53.6 °F 51.8 °F 94% 30.41 in 10.0 mi SW 3.5 mph - N/A   Scattered Clouds
2:58 PM 55.4 °F 51.8 °F 88% 30.41 in 10.0 mi Calm Calm - N/A   Mostly Cloudy
3:18 PM 55.4 °F 50.0 °F 82% 30.41 in 10.0 mi WSW 4.6 mph - N/A   Scattered Clouds
3:38 PM 55.4 °F 48.2 °F 77% 30.41 in 10.0 mi Calm Calm - N/A Thunderstorm Scattered Clouds
3:57 PM 57.2 °F 48.2 °F 72% 30.41 in 10.0 mi West 3.5 mph - N/A   Clear
4:18 PM 57.2 °F 48.2 °F 72% 30.40 in 10.0 mi Calm Calm - N/A   Clear
4:38 PM 60.8 °F 50.0 °F 68% 30.40 in 10.0 mi Calm Calm - N/A   Scattered Clouds
4:58 PM 60.8 °F 44.6 °F 55% 30.39 in 10.0 mi Calm Calm - N/A   Scattered Clouds
5:18 PM 55.4 °F 48.2 °F 77% 30.38 in 10.0 mi Calm Calm - N/A   Mostly Cloudy
5:38 PM 60.8 °F 51.8 °F 72% 30.38 in 10.0 mi Calm Calm - N/A   Overcast
5:58 PM 59.0 °F 46.4 °F 63% 30.39 in 10.0 mi Calm Calm - N/A   Mostly Cloudy
6:18 PM 59.0 °F 44.6 °F 59% 30.38 in 10.0 mi Calm Calm - N/A Thunderstorm Scattered Clouds
6:38 PM 59.0 °F 46.4 °F 63% 30.39 in 10.0 mi Calm Calm - N/A   Scattered Clouds
6:58 PM 59.0 °F 50.0 °F 72% 30.39 in 10.0 mi Calm Calm - N/A Thunderstorm Mostly Cloudy
7:18 PM 55.4 °F 46.4 °F 72% 30.39 in 10.0 mi Calm Calm - N/A   Scattered Clouds
7:38 PM 53.6 °F -41.8 °F 4% 30.41 in 10.0 mi West 5.8 mph - N/A Thunderstorm Scattered Clouds
7:58 PM 51.8 °F - N/A% 30.41 in 10.0 mi NW 5.8 mph - N/A Thunderstorm Overcast
8:18 PM 50.0 °F -25.6 °F 4% 30.41 in 5.0 mi West 5.8 mph - N/A Thunderstorm Unknown
8:38 PM 50.0 °F -23.8 °F 4% 30.42 in 10.0 mi Calm Calm - N/A Thunderstorm Thunderstorm
8:58 PM 50.0 °F -22.0 °F 4% 30.41 in 10.0 mi Calm Calm - N/A   Overcast
9:18 PM 51.8 °F -25.6 °F 4% 30.42 in 10.0 mi Calm Calm - N/A Thunderstorm Thunderstorm
9:38 PM 51.8 °F -31.0 °F 4% 30.43 in 10.0 mi Calm Calm - N/A Thunderstorm Thunderstorm
9:58 PM 51.8 °F -32.8 °F 4% 30.44 in 10.0 mi WNW 3.5 mph - N/A   Overcast
10:18 PM 51.8 °F -29.2 °F 4% 30.43 in 10.0 mi Calm Calm - N/A Thunderstorm Overcast
10:38 PM 50.0 °F -27.4 °F 4% 30.42 in 10.0 mi Calm Calm - N/A   Overcast
10:58 PM 50.0 °F -32.8 °F 4% 30.41 in 10.0 mi SE 3.5 mph - N/A   Overcast
11:18 PM 50.0 °F -43.6 °F 4% 30.42 in 10.0 mi Calm Calm - N/A   Overcast
11:38 PM 50.0 °F -43.6 °F 4% 30.42 in 10.0 mi Calm Calm - N/A   Overcast
11:58 PM 50.0 °F - N/A% 30.42 in 10.0 mi Calm Calm - N/A   Mostly Cloudy